Printer-friendly version

IAU Minor Planet Center

Minor Planet Center

MPEC 2008-U39 : 2008 UF1

The following Minor Planet Electronic Circular may be linked-to from your own Web pages, but must not otherwise be redistributed electronically.


Read MPEC 2008-U38 Read MPEC 2008-U40


M.P.E.C. 2008-U39                                Issued 2008 Oct. 22, 19:29 UT

     The Minor Planet Electronic Circulars contain information on unusual
         minor planets and routine data on comets.  They are published
   on behalf of Commission 20 of the International Astronomical Union by the
          Minor Planet Center, Smithsonian Astrophysical Observatory,
                          Cambridge, MA 02138, U.S.A.

             Prepared using the Tamkin Foundation Computer Network

                              MPC@CFA.HARVARD.EDU
          URL http://www.cfa.harvard.edu/iau/mpc.html  ISSN 1523-6714

                                   2008 UF1

Observations:
     K08U01F  C2008 10 22.32334 01 57 08.67 +00 06 34.6          19.0 V EU039G96
     K08U01F  C2008 10 22.32861 01 57 06.77 +00 08 45.1          19.0 V EU039G96
     K08U01F  C2008 10 22.33396 01 57 04.82 +00 10 57.3          19.2 V EU039G96
     K08U01F  C2008 10 22.33918 01 57 02.92 +00 13 05.4          19.0 V EU039G96
     K08U01F* C2008 10 22.34670 01 57 00.21 +00 16 09.6          19.0 V EU039G96
     K08U01F  C2008 10 22.34700 01 57 00.10 +00 16 17.2          19.1 V EU039G96
     K08U01F  C2008 10 22.34730 01 57 00.00 +00 16 24.5          19.2 V EU039G96
     K08U01F  C2008 10 22.34762 01 56 59.89 +00 16 32.1          19.1 V EU039G96
     K08U01F  C2008 10 22.39464 01 56 43.65 +00 35 22.4          19.2 V EU039G96
     K08U01F  C2008 10 22.39495 01 56 43.54 +00 35 29.6          19.1 V EU039G96
     K08U01F  C2008 10 22.39525 01 56 43.44 +00 35 36.5          19.1 V EU039G96
     K08U01F  C2008 10 22.40218 01 56 41.13 +00 38 20.7          19.1 V EU039G96
     K08U01F  C2008 10 22.40242 01 56 41.06 +00 38 26.0          19.1 V EU039G96
     K08U01F  C2008 10 22.40267 01 56 40.99 +00 38 31.9          19.2 V EU039G96
     K08U01F  C2008 10 22.40292 01 56 40.88 +00 38 37.5          19.2 V EU039G96
     K08U01F  C2008 10 22.42568 01 56 33.61 +00 47 28.8          19.2 V EU039G96
     K08U01F  C2008 10 22.42592 01 56 33.50 +00 47 34.5          19.1 V EU039G96
     K08U01F  C2008 10 22.42616 01 56 33.46 +00 47 40.2          19.4 V EU039G96
     K08U01F  C2008 10 22.42642 01 56 33.39 +00 47 46.0          19.0 V EU039G96
     K08U01F  C2008 10 22.45502 01 56 24.72 +00 58 41.3          18.6 V EU039G96
     K08U01F  C2008 10 22.45526 01 56 24.64 +00 58 47.1          19.4 V EU039G96
     K08U01F  C2008 10 22.45552 01 56 24.50 +00 58 52.7          19.5 V EU039G96
     K08U01F  C2008 10 22.45576 01 56 24.46 +00 58 58.0          19.1 V EU039G96

Observer details:
G96 Mt. Lemmon Survey.  Observer A. R. Gibbs.  Measurers E. C. Beshore,
    A. Boattini, G. J. Garradd, A. R. Gibbs, A. D. Grauer, R. E. Hill,
    R. A. Kowalski, S. M. Larson, R. H. McNaught.  1.5-m reflector + CCD.

Orbital elements:
2008 UF1                                                 Earth MOID = 0.0095 AU
Epoch 2008 Nov. 30.0 TT = JDT 2454800.5                 MPC
M  34.29141              (2000.0)            P               Q
n   0.38907298     Peri.  274.47968     +0.60237306     +0.79682739
a   1.8582979      Node    32.70731     -0.69348274     +0.55160928
e   0.6324809      Incl.    4.99426     -0.39525736     +0.24656299
P   2.53           H   26.0           G   0.15           U   9
Residuals in seconds of arc
081022 G96  0.1-  0.2+    081022 G96  0.2+  0.0     081022 G96  0.3-  0.1+
081022 G96  0.3+  0.1+    081022 G96  0.1+  0.1-    081022 G96  0.2+  0.3+
081022 G96  0.2+  0.2+    081022 G96  0.1+  0.3-    081022 G96  0.4+  0.1+
081022 G96  0.0   0.2-    081022 G96  0.2-  0.4+    081022 G96  0.4+  0.2-
081022 G96  0.1-  0.3-    081022 G96  0.1-  0.1+    081022 G96  0.3+  0.2+
081022 G96  0.2-  0.0     081022 G96  0.1+  0.1+    081022 G96  0.7-  0.1-
081022 G96  0.1-  0.0     081022 G96  0.3-  0.2-    081022 G96  0.2-  0.2-
081022 G96  0.0   0.2-    081022 G96  0.2+  0.0

Ephemeris:
2008 UF1                 a,e,i = 1.86, 0.63, 5                   q = 0.6830
Date    TT    R. A. (2000) Decl.     Delta      r     Elong.  Phase     V
2008 10 21    02 07.65   -16 01.5    0.0166   1.010   152.6    27.0    18.3
2008 10 22    01 58.76   -02 21.0    0.0260   1.020   166.3    13.4    18.9
2008 10 23    01 54.79   +03 55.4    0.0360   1.031   172.5     7.3    19.4
2008 10 24    01 52.54   +07 26.2    0.0464   1.041   175.6     4.2    19.8
2008 10 25    01 51.10   +09 39.9    0.0568   1.051   176.9     2.9    20.2
2008 10 26    01 50.09   +11 12.0    0.0674   1.061   176.7     3.1    20.6
2008 10 27    01 49.36   +12 19.1    0.0780   1.072   175.8     3.9    21.0
2008 10 28    01 48.81   +13 10.0    0.0887   1.082   174.8     4.8    21.3
2008 10 29    01 48.39   +13 50.0    0.0995   1.092   173.8     5.7    21.6
2008 10 30    01 48.06   +14 22.1    0.110    1.103   172.7     6.5    21.9
2008 10 31    01 47.82   +14 48.5    0.121    1.113   171.7     7.4    22.2

Timothy B. Spahr             (C) Copyright 2008 MPC           M.P.E.C. 2008-U39

Read MPEC 2008-U38 Read MPEC 2008-U40


Our Web policy. Index to the CBAT/MPC/ICQ pages.


Valid HTML 4.01!